{"data":{"norad_id":44771,"intl_designator":"2019-074BL","name":"STARLINK-1067","alt_names":[],"object_type":"PAYLOAD","status":"ACTIVE","operator":null,"country":"US","launch_date":"2019-11-11","launch_site_code":"AFETR","launch_vehicle":null,"mission":null,"orbit_class":"UNKNOWN","rcs_meters":null,"size_class":null,"mass_kg":null,"dimensions":null,"purposes":["comms"],"wikipedia_slug":null,"has_3d_model":false,"image_url":null,"decayed_at":null,"tle_current":{"epoch":"2026-05-25T02:58:56.896896Z","epoch_age_seconds":74726,"freshness":"FRESH","line1":"1 44771U 19074BL  26145.12426964  .00062161  00000+0  45969-3 0  9997","line2":"2 44771  53.0425 188.9162 0006858 340.4997  19.5757 15.72354401360489","mean_motion":15.72354401,"eccentricity":0.0006858,"inclination_deg":53.0425,"raan_deg":188.9162,"arg_perigee_deg":340.4997,"mean_anomaly_deg":19.5757,"bstar":0.00045969,"rev_number":36048,"period_min":91.582406554411,"perigee_km":347.55444993955,"apogee_km":356.78573915042,"semimajor_km":6730.307094545,"source":"CELESTRAK","updated_at":"2026-05-25T13:38:16.374743Z"}}}